Language: 


Des rapports , des résumés tant et plus, au choix de chacun....


Données statistiques de la station
Quotidien Rapport Décembre 18, 2017 Unités:  Anglais    Métrique   les deux
« Précédent Jour
Suivant Jour »
Quotidien Hebdomadaire Mensuel Annuel Actuel
  Haut: Bas: Moyen:
Température: TemperatureC °F 2.6 °F 7 °F
Pt de rosée: DewpointC °F 3.0 °F 6.5 °F
Humidité: Humidity % 80 % 94 %
Vitesse du vent: WindSpeedKMH mph 0.0 mph 6.6 mph
Rafales: WindSpeedGustKMH mph - -
Vent:- - WNW
Pression: PressurehPa in 1016.1 in -
Précipitation: 1.8 in    
Historical Graphs
 
 
Données statistiques pour Décembre 18, 2017
Heure Température Point de rosée Pression Vent Vitesse du vent Refales Humidité Pluie (taux horaire)
TemperatureC °F DewpointC °F PressurehPa in Calm     Humidity % HourlyPrecipMM in
00:00 5.9 °F 6.0 °F 1018.2 in WSW 10.5 mph 11.9 mph 98 % 1.3 in
00:02 6.0 °F 6.0 °F 1018.2 in WSW 9.3 mph 14.0 mph 98 % 1.3 in
00:07 6.1 °F 6.0 °F 1018.2 in WSW 9.0 mph 14.0 mph 98 % 1.5 in
00:12 6.2 °F 6.0 °F 1018.2 in West 6.9 mph 11.9 mph 98 % 1.5 in
00:16 6.3 °F 6.0 °F 1018.2 in WSW 7.9 mph 11.9 mph 98 % 1.5 in
00:21 6.5 °F 7.0 °F 1018.2 in WSW 12.6 mph 13.7 mph 98 % 1.5 in
00:23 6.5 °F 7.0 °F 1018.2 in WSW 8.7 mph 13.7 mph 98 % 1.5 in
00:28 6.7 °F 7.0 °F 1016.8 in West 8.7 mph 14.0 mph 98 % 1.5 in
00:30 6.8 °F 7.0 °F 1016.8 in WNW 8.7 mph 14.0 mph 98 % 1.5 in
00:35 7.0 °F 7.0 °F 1016.8 in WSW 6.9 mph 14.0 mph 98 % 1.5 in
00:40 7.0 °F 7.0 °F 1018.2 in WSW 9.0 mph 12.6 mph 98 % 1.5 in
00:45 7.0 °F 7.0 °F 1018.2 in WSW 7.9 mph 11.6 mph 98 % 1.5 in
00:48 7.0 °F 7.0 °F 1018.2 in WSW 8.7 mph 11.6 mph 98 % 1.5 in
00:53 7.0 °F 7.0 °F 1018.2 in WSW 10.1 mph 13.0 mph 98 % 1.3 in
00:55 6.9 °F 7.0 °F 1018.2 in SW 12.2 mph 13.0 mph 98 % 1.3 in
01:00 7.0 °F 7.0 °F 1016.1 in WSW 11.9 mph 13.0 mph 98 % 1.3 in
01:01 7.0 °F 7.0 °F 1016.1 in WSW 9.3 mph 13.0 mph 98 % 1.3 in
01:04 7.1 °F 7.0 °F 1016.1 in WSW 10.1 mph 13.7 mph 98 % 1.0 in
01:06 7.1 °F 7.0 °F 1016.1 in WSW 11.9 mph 14.0 mph 98 % 1.0 in
01:09 7.1 °F 7.0 °F 1016.1 in WSW 9.0 mph 14.0 mph 98 % 1.0 in
01:11 7.3 °F 7.0 °F 1016.8 in West 12.6 mph 14.0 mph 98 % 1.0 in
01:16 7.4 °F 7.0 °F 1016.8 in WSW 10.1 mph 14.0 mph 98 % 0.5 in
01:18 7.4 °F 7.0 °F 1016.8 in WNW 8.7 mph 14.0 mph 98 % 0.5 in
01:23 7.5 °F 8.0 °F 1016.8 in West 4.7 mph 14.0 mph 98 % 0.5 in
01:24 7.5 °F 8.0 °F 1016.8 in WNW 7.9 mph 11.9 mph 98 % 0.5 in
01:30 7.9 °F 8.0 °F 1016.8 in NW 5.0 mph 13.0 mph 98 % 0.3 in
01:31 7.9 °F 8.0 °F 1016.8 in NNW 17.7 mph 17.7 mph 98 % 0.3 in
01:36 8.4 °F 9.0 °F 1016.8 in WNW 20.1 mph 21.2 mph 98 % 0.3 in
01:41 8.6 °F 9.0 °F 1016.8 in WNW 5.8 mph 21.2 mph 98 % 0.3 in
01:43 8.6 °F 9.0 °F 1016.8 in West 12.2 mph 21.2 mph 98 % 0.3 in
01:48 8.8 °F 9.0 °F 1016.8 in West 7.6 mph 15.4 mph 98 % 0.0 in
01:50 8.8 °F 9.0 °F 1016.8 in WNW 1.8 mph 15.4 mph 98 % 0.0 in
01:55 8.8 °F 9.0 °F 1016.8 in NW 9.3 mph 12.6 mph 98 % 0.0 in
01:57 8.8 °F 9.0 °F 1016.1 in West 3.2 mph 12.6 mph 98 % 0.0 in
02:02 8.8 °F 9.0 °F 1016.1 in NNW 7.9 mph 12.2 mph 98 % 0.0 in
02:04 8.8 °F 9.0 °F 1016.1 in West 4.0 mph 11.6 mph 98 % 0.0 in
02:09 8.8 °F 9.0 °F 1016.1 in NNW 7.2 mph 13.0 mph 98 % 0.0 in
02:10 8.8 °F 9.0 °F 1016.1 in SW 6.1 mph 13.0 mph 98 % 0.0 in
02:11 8.8 °F 9.0 °F 1016.8 in NNE 10.1 mph 13.0 mph 98 % 0.0 in
02:16 8.9 °F 9.0 °F 1016.8 in North 7.9 mph 13.0 mph 98 % 0.0 in
02:20 8.9 °F 9.0 °F 1016.8 in NNW 13.7 mph 13.7 mph 98 % 0.0 in
02:25 8.9 °F 9.0 °F 1016.8 in West 6.9 mph 13.7 mph 98 % 0.0 in
02:27 8.9 °F 9.0 °F 1016.8 in NNW 4.7 mph 13.7 mph 98 % 0.0 in
02:29 8.9 °F 9.0 °F 1016.8 in WNW 7.9 mph 14.0 mph 98 % 0.0 in
02:34 8.9 °F 9.0 °F 1016.8 in NW 4.0 mph 14.0 mph 98 % 0.0 in
02:39 8.9 °F 9.0 °F 1016.8 in NNW 5.5 mph 12.2 mph 98 % 0.0 in
02:44 8.9 °F 9.0 °F 1018.2 in NW 10.5 mph 16.9 mph 98 % 0.0 in
02:45 8.9 °F 9.0 °F 1018.2 in NNW 15.4 mph 16.9 mph 98 % 0.0 in
02:46 8.9 °F 9.0 °F 1018.2 in NNW 8.7 mph 16.9 mph 98 % 0.0 in
02:50 8.8 °F 9.0 °F 1018.2 in WNW 2.6 mph 16.9 mph 98 % 0.0 in
02:55 8.8 °F 9.0 °F 1016.8 in WNW 8.7 mph 15.1 mph 98 % 0.0 in
02:56 8.8 °F 9.0 °F 1016.8 in WNW 10.1 mph 15.1 mph 98 % 0.0 in
03:01 8.8 °F 9.0 °F 1016.8 in WNW 8.7 mph 16.6 mph 98 % 0.0 in
03:06 8.7 °F 9.0 °F 1016.8 in NW 7.6 mph 16.6 mph 98 % 0.0 in
03:09 8.7 °F 9.0 °F 1016.8 in West 10.5 mph 11.1 mph 98 % 0.0 in
03:14 8.7 °F 9.0 °F 1018.2 in NW 7.9 mph 12.6 mph 98 % 0.0 in
03:15 8.7 °F 9.0 °F 1018.2 in NNW 4.7 mph 12.6 mph 98 % 0.0 in
03:19 8.6 °F 9.0 °F 1018.2 in NNW 8.7 mph 12.6 mph 98 % 0.0 in
03:20 8.6 °F 9.0 °F 1018.2 in WNW 6.9 mph 12.6 mph 98 % 0.0 in
03:25 8.6 °F 9.0 °F 1018.2 in North 5.8 mph 13.7 mph 98 % 0.0 in
03:27 8.5 °F 9.0 °F 1018.2 in West 6.4 mph 13.7 mph 98 % 0.0 in
03:32 8.5 °F 9.0 °F 1018.2 in North 9.3 mph 13.7 mph 98 % 0.0 in
03:35 8.5 °F 9.0 °F 1018.2 in NW 11.9 mph 13.7 mph 98 % 0.0 in
03:40 8.4 °F 9.0 °F 1018.2 in North 6.9 mph 15.8 mph 98 % 0.0 in
03:41 8.4 °F 9.0 °F 1018.2 in NNW 8.7 mph 15.8 mph 98 % 0.0 in
03:46 8.4 °F 9.0 °F 1018.2 in NNE 3.5 mph 15.8 mph 98 % 0.0 in
03:50 8.3 °F 9.0 °F 1018.2 in NNE 4.0 mph 12.2 mph 98 % 0.0 in
03:51 8.3 °F 9.0 °F 1018.2 in Calm   11.6 mph 98 % 0.0 in
03:56 8.2 °F 8.0 °F 1018.2 in NNW 11.6 mph 12.2 mph 98 % 0.0 in
04:01 8.1 °F 8.0 °F 1018.2 in NNW 4.3 mph 12.6 mph 98 % 0.0 in
04:02 8.1 °F 8.0 °F 1018.2 in North 1.4 mph 12.6 mph 98 % 0.0 in
04:07 8.1 °F 8.0 °F 1018.2 in NNW 9.7 mph 14.8 mph 98 % 0.0 in
04:08 8.0 °F 8.0 °F 1018.2 in NNW 8.7 mph 14.8 mph 98 % 0.0 in
04:13 8.0 °F 8.0 °F 1018.8 in North 9.7 mph 14.8 mph 98 % 0.0 in
04:20 7.9 °F 8.0 °F 1018.8 in North 12.2 mph 13.7 mph 98 % 0.0 in
04:21 7.8 °F 8.0 °F 1018.8 in North 2.6 mph 13.7 mph 98 % 0.0 in
04:26 7.9 °F 8.0 °F 1018.8 in WNW 9.0 mph 15.4 mph 98 % 0.0 in
04:28 7.9 °F 8.0 °F 1018.8 in North 4.7 mph 15.4 mph 98 % 0.0 in
04:33 7.8 °F 8.0 °F 1018.8 in NNW 5.5 mph 15.4 mph 98 % 0.0 in
04:34 7.8 °F 8.0 °F 1018.8 in NNW 5.5 mph 15.4 mph 98 % 0.0 in
04:38 7.7 °F 8.0 °F 1018.8 in NNE 5.0 mph 10.1 mph 98 % 0.0 in
04:40 7.7 °F 8.0 °F 1018.8 in NW 6.1 mph 9.3 mph 98 % 0.0 in
04:45 7.7 °F 8.0 °F 1018.8 in WSW 10.5 mph 16.3 mph 98 % 0.0 in
04:47 7.7 °F 8.0 °F 1018.8 in North 10.1 mph 16.3 mph 98 % 0.0 in
04:52 7.7 °F 8.0 °F 1018.8 in NNW 14.0 mph 16.3 mph 98 % 0.0 in
04:53 7.7 °F 8.0 °F 1018.8 in NNW 5.8 mph 16.3 mph 98 % 0.0 in
04:58 7.7 °F 8.0 °F 1018.2 in North 10.1 mph 15.8 mph 98 % 0.0 in
05:02 7.7 °F 8.0 °F 1018.2 in NNW 9.7 mph 11.9 mph 98 % 0.0 in
05:07 7.7 °F 8.0 °F 1018.2 in North 10.1 mph 12.6 mph 98 % 0.0 in
05:08 7.7 °F 8.0 °F 1018.2 in North 7.6 mph 12.6 mph 98 % 0.0 in
05:09 7.7 °F 8.0 °F 1018.2 in North 5.5 mph 12.6 mph 98 % 0.0 in
05:14 7.7 °F 8.0 °F 1018.8 in NNW 6.4 mph 12.6 mph 98 % 0.0 in
05:19 6.8 °F 6.0 °F 1018.8 in NNW 9.7 mph 15.8 mph 97 % 0.0 in
05:24 6.8 °F 6.0 °F 1018.8 in NW 6.1 mph 15.8 mph 97 % 0.0 in
05:29 6.8 °F 6.0 °F 1018.8 in East 10.1 mph 15.4 mph 97 % 0.0 in
05:31 6.8 °F 6.0 °F 1018.8 in NNE 8.7 mph 15.4 mph 97 % 0.0 in
05:32 6.8 °F 6.0 °F 1018.8 in NNE 9.7 mph 15.4 mph 97 % 0.0 in
05:37 6.8 °F 6.0 °F 1018.8 in NNW 10.5 mph 15.4 mph 97 % 0.0 in
05:41 6.8 °F 6.0 °F 1018.8 in NNW 6.1 mph 12.6 mph 97 % 0.0 in
05:42 6.8 °F 6.0 °F 1018.8 in NNW 3.2 mph 11.1 mph 97 % 0.0 in
05:47 6.8 °F 6.0 °F 1018.8 in West 2.6 mph 15.4 mph 97 % 0.0 in
05:48 6.8 °F 6.0 °F 1018.8 in NNW 8.7 mph 15.4 mph 97 % 0.0 in
05:50 6.8 °F 6.0 °F 1018.8 in NNW 6.1 mph 15.4 mph 97 % 0.0 in
05:54 6.8 °F 6.0 °F 1018.8 in North 5.5 mph 15.4 mph 97 % 0.0 in
05:57 6.8 °F 6.0 °F 1018.8 in NNW 8.7 mph 11.9 mph 97 % 0.0 in
06:04 6.8 °F 6.0 °F 1018.8 in Calm   9.7 mph 97 % 0.0 in
06:10 6.8 °F 6.0 °F 1018.8 in Calm   9.7 mph 97 % 0.0 in
06:12 6.8 °F 6.0 °F 1018.8 in West 1.8 mph 9.7 mph 97 % 0.0 in
06:17 6.8 °F 6.0 °F 1018.8 in NW 5.8 mph 9.3 mph 97 % 0.0 in
06:23 6.8 °F 6.0 °F 1018.8 in North 13.7 mph 21.6 mph 97 % 0.3 in
06:24 6.2 °F 6.0 °F 1018.8 in NNW 11.6 mph 21.6 mph 97 % 0.3 in
06:27 6.2 °F 6.0 °F 1019.9 in NNE 14.0 mph 21.6 mph 97 % 0.3 in
06:32 6.2 °F 6.0 °F 1019.9 in NNW 6.4 mph 15.4 mph 97 % 0.3 in
06:37 6.1 °F 6.0 °F 1019.9 in WNW 5.8 mph 13.0 mph 97 % 0.3 in
06:42 6.0 °F 6.0 °F 1020.9 in NNE 9.0 mph 13.7 mph 97 % 0.3 in
06:43 6.0 °F 6.0 °F 1020.9 in WNW 10.1 mph 13.7 mph 97 % 0.3 in
06:48 6.0 °F 6.0 °F 1020.9 in WNW 4.0 mph 13.7 mph 97 % 0.3 in
06:53 5.9 °F 6.0 °F 1020.9 in NW 5.0 mph 10.1 mph 97 % 0.3 in
06:54 5.9 °F 6.0 °F 1020.9 in North 14.0 mph 14.0 mph 98 % 0.3 in
06:58 5.9 °F 6.0 °F 1020.9 in NW 7.9 mph 14.0 mph 98 % 0.3 in
07:03 5.9 °F 6.0 °F 1020.9 in NNW 5.0 mph 14.0 mph 98 % 0.3 in
07:08 5.9 °F 6.0 °F 1020.9 in NNW 8.7 mph 12.6 mph 98 % 0.3 in
07:10 5.8 °F 6.0 °F 1020.9 in NNW 6.1 mph 12.6 mph 98 % 0.3 in
07:14 5.9 °F 6.0 °F 1020.9 in North 10.1 mph 17.2 mph 98 % 0.3 in
07:17 5.9 °F 6.0 °F 1020.9 in NNE 5.8 mph 17.2 mph 98 % 0.3 in
07:22 5.9 °F 6.0 °F 1020.9 in NNW 8.7 mph 17.2 mph 98 % 0.0 in
07:27 6.1 °F 6.0 °F 1020.9 in NNW 9.7 mph 16.3 mph 98 % 0.0 in
07:29 6.2 °F 6.0 °F 1020.9 in NE 6.1 mph 16.3 mph 98 % 0.0 in
07:34 6.2 °F 6.0 °F 1020.9 in North 14.0 mph 16.3 mph 98 % 0.0 in
07:38 6.1 °F 6.0 °F 1020.9 in North 6.9 mph 14.0 mph 98 % 0.0 in
07:39 6.1 °F 6.0 °F 1020.9 in North 1.4 mph 14.0 mph 98 % 0.0 in
07:44 6.1 °F 6.0 °F 1020.9 in North 3.2 mph 14.0 mph 98 % 0.0 in
07:49 6.2 °F 6.0 °F 1020.9 in North 6.1 mph 12.6 mph 98 % 0.0 in
07:54 6.2 °F 6.0 °F 1020.9 in NNW 6.1 mph 12.6 mph 98 % 0.0 in
07:59 6.3 °F 6.0 °F 1020.9 in Calm   12.6 mph 98 % 0.0 in
08:04 6.3 °F 6.0 °F 1020.9 in North 8.7 mph 13.7 mph 98 % 0.0 in
08:05 6.4 °F 6.0 °F 1020.9 in North 12.6 mph 13.7 mph 98 % 0.0 in
08:10 6.4 °F 6.0 °F 1021.9 in NNW 9.3 mph 13.7 mph 98 % 0.0 in
08:11 6.4 °F 6.0 °F 1021.9 in NNW 5.0 mph 13.7 mph 98 % 0.0 in
08:16 6.4 °F 6.0 °F 1021.9 in WSW 5.8 mph 13.0 mph 98 % 0.0 in
08:17 6.4 °F 6.0 °F 1021.9 in NNW 12.2 mph 13.0 mph 98 % 0.0 in
08:19 6.4 °F 6.0 °F 1021.9 in NNW 7.9 mph 12.2 mph 98 % 0.0 in
08:24 6.4 °F 6.0 °F 1021.9 in NW 10.5 mph 15.8 mph 98 % 0.0 in
08:25 6.4 °F 6.0 °F 1021.9 in North 9.0 mph 15.8 mph 98 % 0.0 in
08:30 6.4 °F 6.0 °F 1021.9 in NNE 7.6 mph 15.8 mph 98 % 0.0 in
08:31 6.4 °F 6.0 °F 1021.9 in NNW 12.2 mph 13.7 mph 98 % 0.0 in
08:32 6.4 °F 6.0 °F 1021.9 in West 3.2 mph 13.7 mph 98 % 0.0 in
08:37 6.4 °F 6.0 °F 1021.9 in North 4.3 mph 13.7 mph 98 % 0.0 in
08:39 6.4 °F 6.0 °F 1021.9 in NW 3.2 mph 12.6 mph 98 % 0.0 in
08:45 6.4 °F 6.0 °F 1021.9 in North 4.7 mph 12.6 mph 98 % 0.0 in
08:47 6.4 °F 6.0 °F 1021.9 in NW 5.5 mph 12.6 mph 98 % 0.0 in
08:53 6.4 °F 6.0 °F 1021.9 in North 6.9 mph 13.7 mph 98 % 0.0 in
08:54 6.4 °F 6.0 °F 1021.9 in North 9.0 mph 16.3 mph 98 % 0.0 in
09:00 6.4 °F 6.0 °F 1022.9 in NNE 9.7 mph 16.3 mph 98 % 0.0 in
09:05 6.4 °F 6.0 °F 1022.9 in NW 7.9 mph 13.7 mph 98 % 0.0 in
09:07 6.4 °F 6.0 °F 1022.9 in North 10.5 mph 13.7 mph 98 % 0.0 in
09:12 6.4 °F 6.0 °F 1022.9 in NW 13.0 mph 15.8 mph 98 % 0.0 in
09:17 6.4 °F 6.0 °F 1022.9 in North 8.7 mph 16.6 mph 98 % 0.0 in
09:18 6.4 °F 6.0 °F 1022.9 in NNE 7.9 mph 16.6 mph 98 % 0.0 in
09:23 6.4 °F 6.0 °F 1022.9 in North 6.1 mph 16.6 mph 98 % 0.0 in
09:25 6.4 °F 6.0 °F 1021.9 in NNW 12.2 mph 15.8 mph 98 % 0.0 in
09:30 6.4 °F 6.0 °F 1021.9 in WNW 9.7 mph 15.8 mph 98 % 0.0 in
09:31 6.4 °F 6.0 °F 1021.9 in North 9.7 mph 13.7 mph 98 % 0.0 in
09:36 6.4 °F 6.0 °F 1021.9 in NNE 8.7 mph 14.0 mph 98 % 0.0 in
09:39 6.4 °F 6.0 °F 1021.9 in NNW 10.5 mph 14.0 mph 98 % 0.0 in
09:44 6.4 °F 6.0 °F 1022.9 in NNW 10.1 mph 14.0 mph 98 % 0.3 in
09:45 6.4 °F 6.0 °F 1022.9 in NNW 7.6 mph 14.0 mph 98 % 0.3 in
09:50 6.4 °F 6.0 °F 1022.9 in NNE 1.8 mph 13.0 mph 98 % 0.3 in
09:54 6.4 °F 6.0 °F 1022.9 in NNW 8.7 mph 13.0 mph 98 % 0.3 in
09:59 6.4 °F 6.0 °F 1023.9 in North 9.3 mph 16.3 mph 98 % 0.3 in
10:05 6.4 °F 6.0 °F 1023.9 in NNW 5.0 mph 23.3 mph 98 % 0.3 in
10:10 6.4 °F 6.0 °F 1023.9 in NNW 12.6 mph 23.3 mph 98 % 0.3 in
10:12 6.4 °F 6.0 °F 1023.9 in NNW 10.8 mph 23.3 mph 98 % 0.3 in
10:16 6.4 °F 6.0 °F 1023.9 in NNW 13.0 mph 13.7 mph 98 % 0.3 in
10:18 6.4 °F 6.0 °F 1023.9 in NNW 9.0 mph 17.7 mph 98 % 0.3 in
10:23 7.0 °F 7.0 °F 1023.9 in NNW 9.0 mph 17.7 mph 98 % 0.3 in
10:27 7.0 °F 7.0 °F 1023.9 in North 9.7 mph 17.7 mph 98 % 0.3 in
10:28 7.0 °F 7.0 °F 1023.9 in NNE 7.9 mph 16.3 mph 98 % 0.3 in
10:33 7.5 °F 8.0 °F 1023.9 in North 6.9 mph 16.9 mph 98 % 0.3 in
10:34 7.5 °F 8.0 °F 1023.9 in NW 6.9 mph 16.9 mph 98 % 0.3 in
10:39 7.7 °F 7.0 °F 1023.9 in NNW 9.0 mph 15.1 mph 97 % 0.3 in
10:42 7.7 °F 7.0 °F 1024.9 in North 9.3 mph 15.1 mph 97 % 0.0 in
10:46 7.8 °F 7.0 °F 1024.9 in North 8.7 mph 15.1 mph 96 % 0.0 in
10:50 7.8 °F 7.0 °F 1024.9 in North 9.7 mph 16.6 mph 96 % 0.0 in
10:53 7.8 °F 7.0 °F 1024.9 in NNW 8.7 mph 16.6 mph 95 % 0.0 in
10:58 8.0 °F 8.0 °F 1024.9 in NNW 7.6 mph 15.8 mph 95 % 0.0 in
11:03 8.0 °F 7.0 °F 1024.9 in NE 9.7 mph 14.0 mph 94 % 0.0 in
11:05 8.1 °F 7.0 °F 1024.9 in NNE 9.7 mph 14.0 mph 94 % 0.0 in
11:06 8.1 °F 7.0 °F 1024.9 in NW 5.8 mph 14.0 mph 94 % 0.0 in
11:11 8.1 °F 7.0 °F 1024.9 in North 13.0 mph 16.6 mph 93 % 0.0 in
11:14 8.1 °F 7.0 °F 1024.9 in NNW 10.1 mph 16.6 mph 92 % 0.0 in
11:17 8.1 °F 7.0 °F 1024.9 in North 11.9 mph 16.6 mph 93 % 0.0 in
11:21 8.1 °F 7.0 °F 1024.9 in NNE 10.5 mph 16.3 mph 93 % 0.0 in
11:27 8.3 °F 8.0 °F 1024.9 in North 5.5 mph 13.7 mph 93 % 0.0 in
11:32 8.4 °F 7.0 °F 1024.9 in North 4.7 mph 12.6 mph 92 % 0.0 in
11:37 8.4 °F 7.0 °F 1024.9 in North 5.0 mph 14.8 mph 92 % 0.0 in
11:39 8.5 °F 8.0 °F 1024.9 in North 12.2 mph 14.8 mph 92 % 0.0 in
11:43 8.5 °F 8.0 °F 1023.9 in North 6.1 mph 14.8 mph 92 % 0.0 in
11:47 8.5 °F 8.0 °F 1023.9 in North 13.7 mph 15.4 mph 92 % 0.0 in
11:52 8.5 °F 8.0 °F 1023.9 in North 5.5 mph 15.4 mph 92 % 0.0 in
11:56 8.5 °F 8.0 °F 1023.9 in NNW 7.9 mph 15.4 mph 92 % 0.0 in
12:01 9.0 °F 8.0 °F 1023.9 in North 5.0 mph 13.0 mph 90 % 0.0 in
12:03 9.0 °F 8.0 °F 1023.9 in North 10.5 mph 12.6 mph 90 % 0.0 in
12:04 9.0 °F 8.0 °F 1023.9 in North 7.2 mph 12.6 mph 90 % 0.0 in
12:09 9.0 °F 8.0 °F 1023.9 in NE 10.5 mph 14.0 mph 89 % 0.0 in
12:14 9.0 °F 8.0 °F 1024.9 in North 11.1 mph 14.3 mph 89 % 0.0 in
12:16 9.0 °F 8.0 °F 1024.9 in NNW 8.7 mph 14.3 mph 89 % 0.0 in
12:20 9.0 °F 8.0 °F 1024.9 in NNE 14.8 mph 16.9 mph 89 % 0.0 in
12:22 9.0 °F 8.0 °F 1024.9 in North 9.0 mph 16.9 mph 89 % 0.0 in
12:27 9.0 °F 8.0 °F 1024.9 in NE 15.1 mph 16.9 mph 89 % 0.0 in
12:32 9.0 °F 8.0 °F 1024.9 in NNE 9.0 mph 15.8 mph 89 % 0.0 in
12:34 9.0 °F 8.0 °F 1024.9 in North 10.5 mph 15.8 mph 89 % 0.0 in
12:39 9.0 °F 8.0 °F 1024.9 in NNE 10.5 mph 15.8 mph 89 % 0.0 in
12:40 9.0 °F 8.0 °F 1024.9 in North 9.0 mph 13.0 mph 89 % 0.0 in
12:42 9.0 °F 8.0 °F 1024.9 in NNW 1.8 mph 13.0 mph 89 % 0.0 in
12:47 9.0 °F 8.0 °F 1024.9 in NNW 13.0 mph 14.0 mph 89 % 0.0 in
12:48 9.0 °F 8.0 °F 1024.9 in North 10.5 mph 14.0 mph 89 % 0.0 in
12:53 9.0 °F 8.0 °F 1024.9 in North 14.0 mph 16.9 mph 89 % 0.0 in
12:54 9.0 °F 8.0 °F 1024.9 in North 12.2 mph 16.9 mph 89 % 0.0 in
12:58 9.0 °F 8.0 °F 1024.9 in North 13.7 mph 17.7 mph 89 % 0.0 in
13:02 9.0 °F 8.0 °F 1024.9 in NNE 10.5 mph 17.7 mph 89 % 0.0 in
13:05 9.0 °F 8.0 °F 1024.9 in North 12.6 mph 18.3 mph 89 % 0.0 in
13:08 9.0 °F 8.0 °F 1024.9 in NE 12.2 mph 18.3 mph 89 % 0.0 in
13:13 9.0 °F 8.0 °F 1024.9 in NNE 11.6 mph 18.3 mph 89 % 0.0 in
13:15 9.0 °F 8.0 °F 1024.9 in NNE 12.6 mph 18.3 mph 89 % 0.0 in
13:16 9.0 °F 8.0 °F 1024.9 in North 12.2 mph 15.8 mph 89 % 0.0 in
13:21 9.4 °F 7.0 °F 1024.9 in NNW 6.1 mph 17.7 mph 83 % 0.0 in
13:24 9.7 °F 7.0 °F 1024.9 in North 8.7 mph 17.7 mph 83 % 0.0 in
13:32 9.3 °F 7.0 °F 1024.9 in North 10.5 mph 14.0 mph 83 % 0.0 in
13:34 9.5 °F 7.0 °F 1024.9 in North 8.7 mph 14.0 mph 83 % 0.0 in
13:39 9.4 °F 7.0 °F 1024.9 in NNE 9.7 mph 16.3 mph 83 % 0.0 in
13:40 9.4 °F 7.0 °F 1024.9 in NNE 11.9 mph 16.3 mph 83 % 0.0 in
13:45 9.5 °F 7.0 °F 1026.0 in WNW 6.9 mph 16.3 mph 83 % 0.0 in
13:47 9.5 °F 7.0 °F 1026.0 in NNW 20.9 mph 20.9 mph 83 % 0.0 in
13:49 9.5 °F 7.0 °F 1026.0 in North 15.8 mph 20.9 mph 83 % 0.0 in
13:54 9.5 °F 7.0 °F 1026.0 in North 11.1 mph 20.9 mph 83 % 0.0 in
13:56 9.5 °F 7.0 °F 1026.0 in North 5.0 mph 20.9 mph 81 % 0.0 in
14:01 9.5 °F 7.0 °F 1026.0 in NNW 12.6 mph 18.3 mph 81 % 0.0 in
14:02 9.5 °F 7.0 °F 1026.0 in North 5.8 mph 18.3 mph 81 % 0.0 in
14:07 9.5 °F 7.0 °F 1026.0 in North 15.8 mph 21.6 mph 81 % 0.0 in
14:08 9.5 °F 7.0 °F 1026.0 in NNE 9.7 mph 21.6 mph 81 % 0.0 in
14:13 9.1 °F 6.0 °F 1026.0 in NW 10.5 mph 21.6 mph 80 % 0.0 in
14:15 9.1 °F 6.0 °F 1026.0 in North 13.0 mph 20.1 mph 80 % 0.0 in
14:16 9.1 °F 6.0 °F 1026.0 in NNW 10.1 mph 20.1 mph 80 % 0.0 in
14:21 9.2 °F 6.0 °F 1026.0 in NNE 15.8 mph 16.9 mph 80 % 0.0 in
14:26 9.0 °F 6.0 °F 1026.0 in North 13.7 mph 17.2 mph 80 % 0.0 in
14:27 9.0 °F 6.0 °F 1026.0 in Calm   17.2 mph 80 % 0.0 in
14:32 9.0 °F 6.0 °F 1026.0 in North 5.0 mph 17.2 mph 80 % 0.0 in
14:33 9.0 °F 6.0 °F 1026.0 in North 7.9 mph 16.6 mph 80 % 0.0 in
14:35 9.2 °F 6.0 °F 1026.0 in NNW 9.7 mph 13.7 mph 81 % 0.0 in
14:39 9.2 °F 6.0 °F 1026.0 in NNE 10.1 mph 13.7 mph 81 % 0.0 in
14:41 9.3 °F 7.0 °F 1026.0 in NNW 9.0 mph 13.0 mph 82 % 0.0 in
14:45 9.3 °F 7.0 °F 1026.0 in NNW 5.5 mph 14.0 mph 82 % 0.0 in
14:50 9.3 °F 7.0 °F 1026.0 in NNW 15.4 mph 15.4 mph 82 % 0.0 in
14:51 9.3 °F 7.0 °F 1026.0 in NNW 5.8 mph 15.4 mph 82 % 0.0 in
14:55 9.3 °F 7.0 °F 1026.0 in North 6.9 mph 15.8 mph 82 % 0.0 in
14:57 9.3 °F 7.0 °F 1027.0 in NNW 6.1 mph 15.8 mph 82 % 0.0 in
15:01 9.3 °F 7.0 °F 1027.0 in NE 10.5 mph 15.8 mph 82 % 0.0 in
15:06 9.3 °F 7.0 °F 1027.0 in North 5.8 mph 14.3 mph 82 % 0.0 in
15:08 9.3 °F 7.0 °F 1027.0 in North 7.9 mph 14.3 mph 82 % 0.0 in
15:13 9.3 °F 7.0 °F 1027.0 in North 8.7 mph 14.0 mph 82 % 0.0 in
15:17 9.5 °F 7.0 °F 1027.0 in North 9.0 mph 14.0 mph 82 % 0.0 in
15:19 9.5 °F 7.0 °F 1027.0 in NNE 9.0 mph 13.0 mph 82 % 0.0 in
15:24 9.5 °F 7.0 °F 1027.0 in North 11.6 mph 13.0 mph 82 % 0.0 in
15:26 9.5 °F 7.0 °F 1027.0 in North 14.8 mph 14.8 mph 82 % 0.0 in
15:31 9.5 °F 7.0 °F 1027.0 in North 6.4 mph 16.9 mph 82 % 0.0 in
15:33 9.5 °F 7.0 °F 1027.0 in North 5.0 mph 16.9 mph 82 % 0.0 in
15:35 9.5 °F 7.0 °F 1027.0 in North 13.0 mph 16.9 mph 82 % 0.0 in
15:40 9.5 °F 7.0 °F 1027.0 in North 6.1 mph 14.0 mph 82 % 0.0 in
15:45 9.5 °F 7.0 °F 1026.0 in NNW 10.5 mph 14.0 mph 82 % 0.0 in
15:50 8.7 °F 6.0 °F 1026.0 in NNW 8.7 mph 14.0 mph 82 % 0.0 in
15:52 8.7 °F 6.0 °F 1026.0 in North 9.0 mph 14.0 mph 82 % 0.0 in
15:57 8.5 °F 6.0 °F 1027.0 in North 4.3 mph 10.5 mph 82 % 0.0 in
15:58 8.4 °F 6.0 °F 1027.0 in NNE 5.0 mph 10.5 mph 82 % 0.0 in
16:02 8.4 °F 6.0 °F 1027.0 in NNW 7.6 mph 9.0 mph 83 % 0.0 in
16:07 8.2 °F 6.0 °F 1027.0 in North 7.9 mph 9.3 mph 83 % 0.0 in
16:08 8.2 °F 6.0 °F 1027.0 in North 2.6 mph 9.3 mph 83 % 0.0 in
16:13 8.0 °F 6.0 °F 1027.0 in NNW 5.5 mph 9.3 mph 84 % 0.0 in
16:14 7.9 °F 6.0 °F 1027.0 in WNW 4.7 mph 9.3 mph 84 % 0.0 in
16:19 7.8 °F 6.0 °F 1027.0 in Calm   8.7 mph 85 % 0.0 in
16:20 7.8 °F 6.0 °F 1027.0 in NE 9.0 mph 9.0 mph 85 % 0.0 in
16:21 7.8 °F 6.0 °F 1027.0 in NNW 5.5 mph 9.0 mph 85 % 0.0 in
16:26 7.7 °F 6.0 °F 1027.0 in NNW 4.0 mph 9.7 mph 85 % 0.0 in
16:27 7.7 °F 6.0 °F 1027.0 in NNW 6.9 mph 9.7 mph 85 % 0.0 in
16:32 7.5 °F 6.0 °F 1027.0 in NNW 6.1 mph 10.8 mph 86 % 0.0 in
16:36 7.4 °F 5.0 °F 1027.0 in Calm   10.8 mph 86 % 0.0 in
16:42 7.3 °F 5.0 °F 1027.0 in NNW 4.7 mph 7.9 mph 86 % 0.0 in
16:47 7.1 °F 5.0 °F 1027.0 in NNW 6.1 mph 11.9 mph 87 % 0.0 in
16:50 7.1 °F 5.0 °F 1027.0 in NNE 6.4 mph 11.9 mph 88 % 0.0 in
16:51 7.1 °F 5.0 °F 1027.0 in NNE 6.4 mph 11.9 mph 88 % 0.0 in
16:56 7.0 °F 5.0 °F 1028.0 in Calm   9.3 mph 88 % 0.0 in
17:00 6.8 °F 5.0 °F 1028.0 in NNW 4.7 mph 9.7 mph 89 % 0.0 in
17:01 6.8 °F 5.0 °F 1028.0 in Calm   9.7 mph 89 % 0.0 in
17:06 6.7 °F 5.0 °F 1028.0 in NNW 4.7 mph 9.7 mph 90 % 0.0 in
17:09 6.7 °F 5.0 °F 1028.0 in Calm   9.7 mph 90 % 0.0 in
17:12 6.5 °F 5.0 °F 1028.0 in NNW 5.8 mph 9.3 mph 90 % 0.0 in
17:16 6.5 °F 5.0 °F 1028.0 in NW 2.6 mph 6.9 mph 90 % 0.0 in
17:18 6.5 °F 5.0 °F 1028.0 in Calm   6.4 mph 90 % 0.0 in
17:23 6.3 °F 5.0 °F 1028.0 in Calm   6.1 mph 91 % 0.0 in
17:26 6.1 °F 5.0 °F 1028.0 in Calm   6.1 mph 90 % 0.0 in
17:28 6.0 °F 5.0 °F 1028.0 in Calm   6.1 mph 90 % 0.0 in
17:33 5.9 °F 5.0 °F 1028.0 in Calm   5.0 mph 91 % 0.0 in
17:34 5.9 °F 5.0 °F 1028.0 in Calm   5.0 mph 91 % 0.0 in
17:39 5.8 °F 5.0 °F 1028.0 in Calm   5.0 mph 91 % 0.0 in
17:42 5.7 °F 5.0 °F 1028.0 in Calm   5.0 mph 91 % 0.0 in
17:44 5.6 °F 5.0 °F 1028.0 in Calm   5.0 mph 92 % 0.0 in
17:48 5.7 °F 5.0 °F 1028.0 in Calm   9.3 mph 93 % 0.0 in
17:49 5.7 °F 5.0 °F 1028.0 in NNW 5.5 mph 9.3 mph 93 % 0.0 in
17:54 5.6 °F 5.0 °F 1028.0 in NW 3.2 mph 9.3 mph 94 % 0.0 in
17:59 5.5 °F 5.0 °F 1029.0 in Calm   6.4 mph 94 % 0.0 in
18:00 5.5 °F 5.0 °F 1029.0 in Calm   3.5 mph 94 % 0.0 in
18:02 5.5 °F 5.0 °F 1029.0 in Calm   4.0 mph 94 % 0.0 in
18:06 5.4 °F 5.0 °F 1029.0 in Calm   4.7 mph 94 % 0.0 in
18:11 5.3 °F 5.0 °F 1029.0 in North 4.3 mph 6.4 mph 94 % 0.0 in
18:16 5.4 °F 5.0 °F 1029.0 in NNW 4.7 mph 6.4 mph 95 % 0.0 in
18:19 5.4 °F 5.0 °F 1029.0 in NNW 1.4 mph 6.9 mph 95 % 0.0 in
18:24 5.6 °F 6.0 °F 1029.0 in North 5.5 mph 9.3 mph 97 % 0.0 in
18:28 5.7 °F 6.0 °F 1029.0 in North 7.9 mph 9.3 mph 97 % 0.0 in
18:33 5.7 °F 6.0 °F 1029.0 in NNW 7.6 mph 9.3 mph 97 % 0.0 in
18:34 5.7 °F 6.0 °F 1029.0 in NNW 7.6 mph 9.3 mph 97 % 0.0 in
18:39 5.7 °F 6.0 °F 1029.0 in NE 4.0 mph 9.3 mph 97 % 0.0 in
18:43 5.7 °F 6.0 °F 1029.0 in Calm   9.3 mph 97 % 0.0 in
18:46 5.6 °F 6.0 °F 1029.0 in Calm   8.7 mph 97 % 0.0 in
18:51 5.6 °F 6.0 °F 1029.0 in Calm   8.7 mph 97 % 0.0 in
18:52 5.6 °F 6.0 °F 1029.0 in Calm   8.7 mph 97 % 0.0 in
18:54 5.5 °F 6.0 °F 1029.0 in NNW 1.8 mph 8.7 mph 96 % 0.0 in
18:58 5.4 °F 5.0 °F 1029.0 in NNW 1.8 mph 6.9 mph 96 % 0.0 in
19:03 5.4 °F 5.0 °F 1029.0 in Calm   6.9 mph 96 % 0.0 in
19:04 5.4 °F 5.0 °F 1029.0 in Calm   6.9 mph 96 % 0.0 in
19:10 5.4 °F 5.0 °F 1029.0 in Calm   7.9 mph 96 % 0.0 in
19:15 5.4 °F 5.0 °F 1029.0 in Calm   7.9 mph 96 % 0.0 in
19:20 5.4 °F 5.0 °F 1029.0 in NNW 2.1 mph 6.4 mph 96 % 0.0 in
19:21 5.3 °F 5.0 °F 1029.0 in Calm   6.4 mph 97 % 0.0 in
19:26 5.3 °F 5.0 °F 1029.0 in Calm   6.4 mph 97 % 0.0 in
19:27 5.3 °F 5.0 °F 1029.0 in NNW 5.5 mph 6.4 mph 97 % 0.0 in
19:28 5.3 °F 5.0 °F 1029.0 in North 4.3 mph 6.4 mph 97 % 0.0 in
19:33 5.3 °F 5.0 °F 1029.0 in WNW 1.4 mph 9.0 mph 97 % 0.0 in
19:36 5.3 °F 5.0 °F 1029.0 in NNW 2.6 mph 9.0 mph 97 % 0.0 in
19:41 5.3 °F 5.0 °F 1029.0 in WNW 10.1 mph 10.1 mph 97 % 0.0 in
19:46 5.4 °F 6.0 °F 1029.0 in North 4.3 mph 10.5 mph 98 % 0.0 in
19:51 5.4 °F 6.0 °F 1029.0 in NW 4.7 mph 10.5 mph 98 % 0.0 in
19:52 5.4 °F 6.0 °F 1029.0 in NNW 1.4 mph 10.5 mph 98 % 0.0 in
19:55 5.3 °F 6.0 °F 1029.0 in North 6.1 mph 9.7 mph 98 % 0.0 in
19:57 5.2 °F 5.0 °F 1030.0 in NNW 10.1 mph 10.1 mph 98 % 0.0 in
20:02 5.3 °F 6.0 °F 1030.0 in NNW 5.0 mph 10.1 mph 98 % 0.0 in
20:05 5.3 °F 6.0 °F 1030.0 in NW 4.0 mph 10.1 mph 98 % 0.0 in
20:10 5.2 °F 5.0 °F 1030.0 in North 4.0 mph 9.7 mph 98 % 0.0 in
20:11 5.2 °F 5.0 °F 1030.0 in North 5.0 mph 9.7 mph 98 % 0.0 in
20:13 5.1 °F 5.0 °F 1030.0 in Calm   9.0 mph 98 % 0.0 in
20:17 5.0 °F 5.0 °F 1030.0 in Calm   9.0 mph 97 % 0.0 in
20:23 4.9 °F 5.0 °F 1030.0 in Calm   5.8 mph 98 % 0.0 in
20:25 4.9 °F 5.0 °F 1030.0 in North 2.6 mph 5.8 mph 98 % 0.0 in
20:30 4.8 °F 5.0 °F 1030.0 in Calm   6.9 mph 98 % 0.0 in
20:32 4.8 °F 5.0 °F 1030.0 in NNW 1.4 mph 6.9 mph 98 % 0.0 in
20:37 4.8 °F 5.0 °F 1030.0 in Calm   6.1 mph 98 % 0.0 in
20:41 4.8 °F 5.0 °F 1030.0 in NNW 2.6 mph 5.0 mph 98 % 0.0 in
20:44 4.8 °F 5.0 °F 1030.0 in Calm   5.0 mph 98 % 0.0 in
20:49 4.8 °F 5.0 °F 1030.0 in North 4.3 mph 6.9 mph 98 % 0.0 in
20:52 4.8 °F 5.0 °F 1030.0 in North 4.3 mph 6.9 mph 98 % 0.0 in
20:55 4.8 °F 5.0 °F 1030.0 in North 2.6 mph 6.9 mph 98 % 0.0 in
20:58 4.8 °F 5.0 °F 1030.0 in NNW 4.7 mph 6.9 mph 98 % 0.0 in
21:02 4.8 °F 5.0 °F 1030.0 in NNW 5.5 mph 9.0 mph 98 % 0.0 in
21:03 4.8 °F 5.0 °F 1030.0 in NW 6.4 mph 9.0 mph 98 % 0.0 in
21:08 4.7 °F 5.0 °F 1030.0 in Calm   9.0 mph 98 % 0.0 in
21:09 4.7 °F 5.0 °F 1030.0 in NNW 4.7 mph 9.0 mph 98 % 0.0 in
21:13 4.7 °F 5.0 °F 1030.0 in Calm   9.0 mph 98 % 0.0 in
21:14 4.7 °F 5.0 °F 1030.0 in Calm   9.0 mph 98 % 0.0 in
21:19 4.7 °F 5.0 °F 1030.0 in WNW 3.2 mph 7.6 mph 98 % 0.0 in
21:20 4.7 °F 5.0 °F 1030.0 in NNW 5.0 mph 7.6 mph 98 % 0.0 in
21:25 4.7 °F 5.0 °F 1030.0 in Calm   6.9 mph 98 % 0.0 in
21:27 4.7 °F 5.0 °F 1030.0 in Calm   6.9 mph 98 % 0.0 in
21:28 4.7 °F 5.0 °F 1030.0 in NNW 2.1 mph 6.9 mph 98 % 0.0 in
21:33 4.7 °F 5.0 °F 1030.0 in NW 4.0 mph 6.4 mph 98 % 0.0 in
21:34 4.7 °F 5.0 °F 1030.0 in WNW 4.7 mph 6.4 mph 98 % 0.0 in
21:39 4.7 °F 5.0 °F 1030.0 in NNW 3.2 mph 6.1 mph 98 % 0.0 in
21:41 4.7 °F 5.0 °F 1030.0 in WNW 9.0 mph 9.0 mph 98 % 0.0 in
21:46 4.7 °F 5.0 °F 1030.0 in WNW 5.8 mph 9.0 mph 98 % 0.0 in
21:47 4.7 °F 5.0 °F 1030.0 in NNW 4.0 mph 9.0 mph 98 % 0.0 in
21:52 4.8 °F 5.0 °F 1030.0 in NW 1.4 mph 6.9 mph 98 % 0.0 in
21:54 4.8 °F 5.0 °F 1030.0 in WNW 6.4 mph 7.6 mph 98 % 0.0 in
22:04 4.9 °F 5.0 °F 1031.0 in NNW 6.9 mph 9.0 mph 98 % 0.0 in
22:14 4.9 °F 5.0 °F 1031.0 in NNW 4.3 mph 11.6 mph 98 % 0.0 in
22:16 4.9 °F 5.0 °F 1031.0 in Calm   11.6 mph 98 % 0.0 in
22:20 4.8 °F 5.0 °F 1031.0 in Calm   6.9 mph 98 % 0.0 in
22:23 4.8 °F 5.0 °F 1031.0 in Calm   6.4 mph 98 % 0.0 in
22:28 4.7 °F 5.0 °F 1031.0 in Calm   6.4 mph 98 % 0.0 in
22:33 4.7 °F 5.0 °F 1031.0 in Calm   4.7 mph 98 % 0.0 in
22:38 4.6 °F 5.0 °F 1031.0 in NNW 4.7 mph 5.5 mph 98 % 0.0 in
22:41 4.6 °F 5.0 °F 1031.0 in NNE 2.1 mph 6.9 mph 98 % 0.0 in
22:46 4.6 °F 5.0 °F 1031.0 in WNW 4.7 mph 6.9 mph 98 % 0.0 in
22:51 4.6 °F 5.0 °F 1031.0 in NNW 4.0 mph 7.9 mph 98 % 0.0 in
22:53 4.6 °F 5.0 °F 1031.0 in WNW 4.7 mph 7.9 mph 98 % 0.0 in
22:58 4.7 °F 5.0 °F 1031.0 in North 5.5 mph 8.7 mph 98 % 0.0 in
23:04 4.6 °F 5.0 °F 1031.0 in Calm   8.7 mph 98 % 0.0 in
23:09 4.6 °F 5.0 °F 1031.0 in NNW 2.6 mph 6.9 mph 98 % 0.0 in
23:11 4.6 °F 5.0 °F 1031.0 in WNW 4.3 mph 6.9 mph 98 % 0.0 in
23:12 4.6 °F 5.0 °F 1031.0 in North 2.1 mph 6.9 mph 98 % 0.0 in
23:17 4.6 °F 5.0 °F 1031.0 in Calm   6.4 mph 98 % 0.0 in
23:20 4.5 °F 5.0 °F 1031.0 in WNW 4.0 mph 5.8 mph 98 % 0.0 in
23:26 4.5 °F 5.0 °F 1030.0 in Calm   6.1 mph 98 % 0.0 in
23:28 4.5 °F 5.0 °F 1030.0 in Calm   6.1 mph 98 % 0.0 in
23:31 4.5 °F 5.0 °F 1030.0 in Calm   6.1 mph 98 % 0.0 in
23:35 4.4 °F 4.0 °F 1030.0 in Calm   5.0 mph 98 % 0.0 in
23:40 3.7 °F 4.0 °F 1031.0 in Calm   5.0 mph 98 % 0.0 in
23:41 3.7 °F 4.0 °F 1031.0 in Calm   5.0 mph 98 % 0.0 in
23:46 3.2 °F 3.0 °F 1031.0 in Calm     98 % 0.0 in
23:49 3.0 °F 3.0 °F 1031.0 in Calm     97 % 0.0 in
23:54 2.7 °F 3.0 °F 1031.0 in Calm   4.0 mph 97 % 0.0 in
23:57 2.6 °F 3.0 °F 1031.0 in Calm   4.0 mph 97 % 0.0 in
Le Gheer Warneton
Courtoisie de Weather Underground - 3 mb

Mise a jour : 21/02/2018 12:10:11
Généré par Cumulus 1.9.4 (1099)